Location: Newark
(34.0635°N, 86.7609°W)
Time: 12:01:45
(UTC+00:00)

N. Korean satellite - Pass Details

Date: 24 December 2019
Orbit: 454 x 508 km, 97.2° (Epoch: 17 January)

Event Time Altitude Azimuth Distance (km) Brightness Sun altitude
Rises 23:42:47 0° 200° (SSW) 2,577 10.9 -12.1°
Reaches altitude 10° 23:45:22 10° 220° (SW) 1,690 10.3 -12.6°
Maximum altitude 23:47:55 18° 265° (W) 1,267 9.8 -13.1°
Drops below altitude 10° 23:50:27 10° 309° (NW) 1,679 9.7 -13.6°
Sets 23:53:01 0° 329° (NNW) 2,553 10.4 -14.1°
